AirNav   Everest Fuels
 
 399 users online  

33MA Seagate Heliport
Manchester, Massachusetts, USA

GOING TO MANCHESTER?


FAA INFORMATION EFFECTIVE 10 SEPTEMBER 2020

Location

FAA Identifier: 33MA
Lat/Long: 42-33-35.3400N 070-46-20.1700W
42-33.589000N 070-46.336167W
42.5598167,-70.7722694
(estimated)
Elevation: 40 ft. / 12 m (estimated)
Variation: 16W (2000)
From city: 2 miles E of MANCHESTER, MA
Time zone: UTC -4 (UTC -5 during Standard Time)
Zip code: 01944

Heliport Operations

Heliport use: Private use. Permission required prior to landing
Activation date: 08/2002
Control tower: no
ARTCC: BOSTON CENTER
FSS: BRIDGEPORT FLIGHT SERVICE STATION
Attendance: UNATNDD
Segmented circle: no

Heliport Communications

WX ASOS at BVY (7 nm W): PHONE 978-921-5042
WX ASOS at BOS (16 nm SW): PHONE 617-567-5762
WX ASOS at LWM (18 nm NW): PHONE 978-687-8017

Nearby radio navigation aids

VOR radial/distance  VOR name  Freq  Var
BOSr054/15.5BOSTON VOR/DME112.7016W
LWMr142/17.9LAWRENCE VOR/DME112.5015W
PSMr191/31.6PEASE VOR/DME116.5016W
MHTr140/32.2MANCHESTER VOR/DME114.4015W

 
NDB name  Hdg/Dist  Freq  Var  ID
PROVINCETOWN336/38.238916WPVC .--. ...- -.-.
ROLLINS192/39.726016WESG . ... --.

Heliport Services

Runway Information

Helipad H1

Dimensions: 40 x 100 ft. / 12 x 30 m
Surface: turf
Traffic pattern: leftleft

Heliport Ownership and Management from official FAA records

Ownership: Privately-owned
Owner: SEAGATE SMITH'S POINT LP
219 VASSAR ST
CAMBRIDGE, MA 02139
Phone 617-528-1805
Manager: ALAN ROTH
219 VASSAR ST
CAMBRIDGE, MA 02139
Phone 617-528-1805

Heliport Operational Statistics

Aircraft based on the field: 1
Helicopters: 1
    

Additional Remarks

FOR CD CTC BOSTON APCH AT 603-594-5554.

Instrument Procedures

There are no published instrument procedures at 33MA.

Some nearby airports with instrument procedures:

KBVY - Beverly Regional Airport (7 nm W)
KBOS - General Edward Lawrence Logan International Airport (16 nm SW)
KLWM - Lawrence Municipal Airport (18 nm NW)
KBED - Laurence G Hanscom Field Airport (23 nm W)
KGHG - Marshfield Municipal Airport - George Harlow Field (28 nm S)
 
Loc | Ops | Rwys | IFR | FBO | Links
Com | Nav | Svcs | Stats | Notes
Area around 33MA (Seagate Heliport)
 
Road maps at: MapQuest Bing Google
 
Aerial photo
No photo
 
Sectional chart

 
Airport distance calculator
Flying to Seagate Heliport? Find the distance to fly.

From to 33MA

Sunrise and sunset
Times for 30-Sep-2020
 Local
(UTC-4)
 Zulu
(UTC)
Morning civil twilight06:1310:13
Sunrise06:4110:41
Sunset18:2422:24
Evening civil twilight18:5222:52

Current date and time
Zulu (UTC)  30-Sep-2020 09:45:55
Local (UTC-4)  30-Sep-2020 05:45:55
 
METAR
KBVY 
7nm W 
300914Z AUTO 17014G25KT 10SM FEW011 BKN017 OVC027 23/22 A2952 RMK AO2 RAE04 P0000 T02330217
KBOS 
16nm SW 
300854Z 18018G29KT 10SM -RA OVC017 23/22 A2953 RMK AO2 PK WND 17030/0803 SLP001 P0007 60028 T02280217 56051
KLWM 
19nm NW 
300854Z AUTO VRB06G18KT 7SM -RA SCT015 BKN023 OVC031 23/21 A2954 RMK AO2 RAE27B52 SLP002 P0011 60015 T02280211 56051
TAF
KBOS 
16nm SW 
300540Z 3006/0112 17012KT P6SM OVC020 FM300900 18015G25KT 3SM -RA BR OVC007 FM301100 18020G35KT 3SM -RA BR OVC007 WS020/18050KT FM301400 21013G25KT P6SM VCSH OVC010 FM301700 23013G25KT P6SM OVC025 FM301900 24013G23KT P6SM OVC045
NOTAMs
Click for the latest NOTAMs
NOTAMs are issued by the DoD/FAA and will open in a separate window not controlled by AirNav.

 

 
 

Would you like to see your business listed on this page?

 If your business provides an interesting product or service to pilots, flight crews, aircraft, or users of the Seagate Heliport, you should consider listing it here.  To start the listing process, click on the button below
 
Add a business
 

Other Pages about Seagate Heliport

Update a link
 
Copyright © AirNav, LLC. All rights reserved. Privacy Policy  Contact